(231399) = 2004 FC162 = 2006 QH84

Discovered at Kitt Peak on 2006-08-27 by Spacewatch.

Orbit

Orbit type: Main Belt

Note: WebGL enabled browser required.

epoch2023-09-13.0
epoch JD2460200.5
perihelion date2023-08-13.76074
perihelion JD2460170.26074
argument of perihelion (°)242.65085
ascending node (°)152.54712
inclination (°)11.70749
eccentricity0.1149707
perihelion distance (AU)2.7315577
Tisserand w.r.t. Jupiter3.2
ΔV w.r.t. Earth (km/sec)10.9
semimajor axis (AU)3.0864036
mean anomaly (°)5.49662
mean daily motion (°/day)0.18177110
aphelion distance (AU)3.441
period (years)5.42
P-vector [x]0.80864650
P-vector [y]0.58548831
P-vector [z]0.05739589
Q-vector [x]-0.58080948
Q-vector [y]0.77903467
Q-vector [z]0.23614685
absolute magnitude16.1
phase slope0.15
uncertainty0
referenceMPEC 2023-X279
observations used322
oppositions15
arc length (days)8121
first opposition used2001
last opposition used2023
residual rms (arc-secs)0.70
perturbers coarse indicatorM-v
perturbers precise indicator003Ek
first observation date used2001-09-18.0
last observation date used2023-12-13.0
computer nameMPCLINUX
JD of orbit computation2456760.857092
perihelion JD uncertainty (days)1.1289E-04
argument of perihelion uncertainty (°)3.1666E-05
ascending node uncertainty (°)2.3210E-05
inclination uncertainty (°)5.7972E-06
eccentricity uncertainty 5.4185E-08
perihelion distance uncertainty (AU)1.6247E-07
Minimum Orbit Intersection Distances (in AU)
for orbit epoch: 2460200.5, reference: E2023-XF2
Mercury2.40369
Venus2.01642
Earth1.75953
Mars1.32917
Jupiter2.09038
Saturn6.08356
Uranus15.1181
Neptune27.1083

Observations

332 total observations over interval: 2001 09 18.396340 – 2023 12 13.334558
These data are available for download (format description).

Date (UT) J2000 RA J2000 Dec Magn Location Ref
2001 09 18.396340 01 52 29.224 -01 02 30.64 20.22 V 645 – Apache Point-Sloan Digital Sky Survey MPS 178674
2001 09 18.399812 01 52 29.139 -01 02 32.30 21.06   645 – Apache Point-Sloan Digital Sky Survey MPS 178674
2001 10 15.35269 01 36 54.48 -04 35 11.3 19.8   644 – Palomar Mountain/NEAT MPS 178674
2001 10 15.36322 01 36 54.03 -04 35 15.8 20.0   644 – Palomar Mountain/NEAT MPS 178674
2001 10 15.37384 01 36 53.54 -04 35 20.1 20.3   644 – Palomar Mountain/NEAT MPS 178674
2001 10 23.29865 01 31 16.24 -05 26 26.0 20.6   644 – Palomar Mountain/NEAT MPS 178674
2001 10 23.31965 01 31 15.33 -05 26 32.8 20.1   644 – Palomar Mountain/NEAT MPS 178674
2001 10 23.34202 01 31 14.35 -05 26 40.9 20.5   644 – Palomar Mountain/NEAT MPS 178674
2004 03 18.43807 13 15 20.72 +03 00 38.8 21.1 V 691 – Steward Observatory, Kitt Peak-Spacewatch MPS 110349
2004 03 18.47308 13 15 19.45 +03 00 53.6 21.3 V 691 – Steward Observatory, Kitt Peak-Spacewatch MPS 110349
2004 03 18.51081 13 15 18.10 +03 01 09.5 21.6 V 691 – Steward Observatory, Kitt Peak-Spacewatch MPS 110349
2004 03 26.41269 13 10 21.30 +03 56 48.3 21.3 V 691 – Steward Observatory, Kitt Peak-Spacewatch MPS 110349
2004 03 26.44637 13 10 19.94 +03 57 02.5 21.3 V 691 – Steward Observatory, Kitt Peak-Spacewatch MPS 110349
2004 03 26.47783 13 10 18.61 +03 57 15.5 21.0 V 691 – Steward Observatory, Kitt Peak-Spacewatch MPS 110349
2004 04 26.21623 12 49 58.64 +06 49 39.2 21.7 V 691 – Steward Observatory, Kitt Peak-Spacewatch MPS 178674
2004 04 26.24534 12 49 57.62 +06 49 45.2 21.6 V 691 – Steward Observatory, Kitt Peak-Spacewatch MPS 178674
2004 04 26.27312 12 49 56.63 +06 49 51.4 21.8 V 691 – Steward Observatory, Kitt Peak-Spacewatch MPS 178674
2006 08 19.27892 22 48 48.13 -08 27 00.7 20.5 V 691 – Steward Observatory, Kitt Peak-Spacewatch MPS 177240
2006 08 19.29921 22 48 47.34 -08 27 10.0 20.3 V 691 – Steward Observatory, Kitt Peak-Spacewatch MPS 177240
2006 08 19.31656 22 48 46.67 -08 27 18.3 20.3 V 691 – Steward Observatory, Kitt Peak-Spacewatch MPS 177240
2006 08 27.23379 22 43 38.38 -09 31 29.0 20.1 V 691 – Steward Observatory, Kitt Peak-Spacewatch MPS 177240
2006 08 27.25118 22 43 37.67 -09 31 37.6 20.2 V 691 – Steward Observatory, Kitt Peak-Spacewatch MPS 177240
2006 08 27.26855 22 43 36.92 -09 31 46.4 20.1 V 691 – Steward Observatory, Kitt Peak-Spacewatch MPS 177240
2006 08 28.23066 22 42 57.76 -09 39 42.6 20.1 V 691 – Steward Observatory, Kitt Peak-Spacewatch MPS 177240
2006 08 28.24804 22 42 57.04 -09 39 51.2 19.9 V 691 – Steward Observatory, Kitt Peak-Spacewatch MPS 177240
2006 08 28.26534 22 42 56.29 -09 39 59.7 20.1 V 691 – Steward Observatory, Kitt Peak-Spacewatch MPS 177240
2006 08 28.29419 22 42 55.04 -09 40 15.2 20.2 V 703 – Catalina Sky Survey MPS 177240
2006 08 28.30319 22 42 54.64 -09 40 18.8 20.3 V 703 – Catalina Sky Survey MPS 177240
2006 08 28.31225 22 42 54.21 -09 40 24.2 19.9 V 703 – Catalina Sky Survey MPS 177240
2006 08 28.32133 22 42 53.92 -09 40 28.2 20.2 V 703 – Catalina Sky Survey MPS 177240
2009 01 18.43393 11 33 57.24 +04 18 51.3 21.6 V G96 – Mt. Lemmon Survey MPS 309426
2009 01 18.44128 11 33 57.34 +04 18 56.4 20.8 V G96 – Mt. Lemmon Survey MPS 309426
2009 01 18.44773 11 33 57.31 +04 18 58.2 21.6 V G96 – Mt. Lemmon Survey MPS 309426
2009 01 18.45289 11 33 57.31 +04 19 00.0 22.3 V G96 – Mt. Lemmon Survey MPS 309426
2009 02 14.28769 11 25 23.76 +06 44 14.1 21.2 V 691 – Steward Observatory, Kitt Peak-Spacewatch MPS 276526
2009 02 14.30577 11 25 23.15 +06 44 21.6 20.8 V 691 – Steward Observatory, Kitt Peak-Spacewatch MPS 276526
2009 02 14.32384 11 25 22.52 +06 44 28.7 21.1 V 691 – Steward Observatory, Kitt Peak-Spacewatch MPS 276526
2009 02 19.25005 11 22 29.33 +07 19 38.4 20.7 V 691 – Steward Observatory, Kitt Peak-Spacewatch MPS 276526
2009 02 19.26815 11 22 28.73 +07 19 46.2 20.4 V 691 – Steward Observatory, Kitt Peak-Spacewatch MPS 276526
2009 02 19.28388 11 22 28.06 +07 19 53.2 20.5 V 691 – Steward Observatory, Kitt Peak-Spacewatch MPS 276526
2009 02 22.22176 11 20 36.56 +07 41 32.1   691 – Steward Observatory, Kitt Peak-Spacewatch MPS 277605
2009 02 22.24010 11 20 35.82 +07 41 40.0   691 – Steward Observatory, Kitt Peak-Spacewatch MPS 277605
2009 02 22.25820 11 20 35.08 +07 41 48.4   691 – Steward Observatory, Kitt Peak-Spacewatch MPS 277605
2009 02 26.23140 11 17 56.56 +08 11 33.5 20.3 V 691 – Steward Observatory, Kitt Peak-Spacewatch MPS 278687
2009 02 26.24948 11 17 55.78 +08 11 41.7 20.5 V 691 – Steward Observatory, Kitt Peak-Spacewatch MPS 278687
2009 02 26.26757 11 17 55.08 +08 11 51.2 20.1 V 691 – Steward Observatory, Kitt Peak-Spacewatch MPS 278687
2009 03 03.31102 11 14 24.90 +08 49 49.1 20.3 V G96 – Mt. Lemmon Survey MPS 278687
2009 03 03.31500 11 14 24.72 +08 49 50.8 20.4 V G96 – Mt. Lemmon Survey MPS 278687
2009 03 03.31912 11 14 24.54 +08 49 52.6 20.0 V G96 – Mt. Lemmon Survey MPS 278687
2009 03 03.32324 11 14 24.36 +08 49 54.6 19.8 V G96 – Mt. Lemmon Survey MPS 278687
2010 05 18.543912 15 23 39.520 -01 51 56.17 20.91 r F51 – Pan-STARRS 1, Haleakala MPS 338846
2010 05 18.555047 15 23 39.025 -01 51 54.24 21.10 r F51 – Pan-STARRS 1, Haleakala MPS 338846
2010 05 19.31865 15 23 05.38 -01 49 50.7 20.8 V G96 – Mt. Lemmon Survey MPS 328525
2010 05 19.32554 15 23 05.02 -01 49 50.0 21.1 V G96 – Mt. Lemmon Survey MPS 328525
2010 05 19.33243 15 23 04.77 -01 49 47.8 20.5 V G96 – Mt. Lemmon Survey MPS 328525
2010 05 19.33929 15 23 04.45 -01 49 47.3 20.2 V G96 – Mt. Lemmon Survey MPS 328525
2010 05 20.21200 15 22 26.19 -01 47 30.4 20.7 V 691 – Steward Observatory, Kitt Peak-Spacewatch MPS 328525
2010 05 20.22975 15 22 25.34 -01 47 28.2 21.0 V 691 – Steward Observatory, Kitt Peak-Spacewatch MPS 328525
2010 05 20.24872 15 22 24.48 -01 47 25.0 21.0 V 691 – Steward Observatory, Kitt Peak-Spacewatch MPS 328525
2010 06 16.18178 15 05 59.53 -01 27 59.4 20.7 V G96 – Mt. Lemmon Survey MPS 333388
2010 06 16.18746 15 05 59.42 -01 27 59.6 21.0 V G96 – Mt. Lemmon Survey MPS 333388
2010 06 16.19318 15 05 59.31 -01 28 00.1 21.2 V G96 – Mt. Lemmon Survey MPS 333388
2010 06 16.19887 15 05 59.13 -01 28 00.3 21.4 V G96 – Mt. Lemmon Survey MPS 333388
2011 08 03.39165 19 59 33.136 -11 47 06.66 21.2 g F51 – Pan-STARRS 1, Haleakala MPS 388339
2011 08 03.41503 19 59 32.061 -11 47 14.86 20.7 r F51 – Pan-STARRS 1, Haleakala MPS 388339
2011 08 03.42540 19 59 31.580 -11 47 18.32 20.5 r F51 – Pan-STARRS 1, Haleakala MPS 388339
2012 10 20.435362 02 50 09.307 -00 31 54.57 19.8 w F51 – Pan-STARRS 1, Haleakala MPS 439242
2012 10 20.449380 02 50 08.721 -00 32 00.18 19.9 w F51 – Pan-STARRS 1, Haleakala MPS 439242
2012 10 20.463455 02 50 08.129 -00 32 06.02 19.8 w F51 – Pan-STARRS 1, Haleakala MPS 439242
2012 10 23.26333 02 48 13.10 -00 50 38.5 19.6 V 703 – Catalina Sky Survey MPS 439242
2012 10 23.26936 02 48 12.88 -00 50 40.8 20.1 V 703 – Catalina Sky Survey MPS 439242
2012 10 23.27534 02 48 12.60 -00 50 44.1 20.1 V 703 – Catalina Sky Survey MPS 439242
2012 10 23.28135 02 48 12.45 -00 50 46.1 19.6 V 703 – Catalina Sky Survey MPS 439242
2012 11 02.432679 02 40 44.315 -01 50 00.67 19.5 i F51 – Pan-STARRS 1, Haleakala MPS 441319
2012 11 02.445660 02 40 43.702 -01 50 04.54 19.4 i F51 – Pan-STARRS 1, Haleakala MPS 441319
2012 11 04.400126 02 39 15.201 -01 59 42.07 19.5 i F51 – Pan-STARRS 1, Haleakala MPS 441319
2012 11 04.411701 02 39 14.651 -01 59 45.46 19.4 i F51 – Pan-STARRS 1, Haleakala MPS 441319
2012 11 15.08275 02 31 26.45 -02 39 35.5 20.6 g W84 – Cerro Tololo-DECam MPS 1223095
2012 11 15.09398 02 31 25.96 -02 39 37.2   W84 – Cerro Tololo-DECam MPS 1223095
2012 11 15.09979 02 31 25.71 -02 39 38.1   W84 – Cerro Tololo-DECam MPS 1223095
2012 11 16.33961 02 30 34.895 -02 42 49.54 19.9 w F51 – Pan-STARRS 1, Haleakala MPS 444687
2012 11 16.35347 02 30 34.308 -02 42 51.59 19.9 w F51 – Pan-STARRS 1, Haleakala MPS 444687
2012 11 16.36727 02 30 33.723 -02 42 53.49 19.9 w F51 – Pan-STARRS 1, Haleakala MPS 444687
2012 11 16.38111 02 30 33.135 -02 42 55.46 19.8 w F51 – Pan-STARRS 1, Haleakala MPS 444687
2014 01 04.33942 09 25 15.27 +08 27 55.0 20.9 V G96 – Mt. Lemmon Survey MPS 496365
2014 01 04.34420 09 25 15.14 +08 27 56.8 21.1 V G96 – Mt. Lemmon Survey MPS 496365
